Location: Goheenville
(40.9070°N, 79.3720°W)
Time: 21:32:40
(UTC-04:00)

Daily predictions for brighter satellites

Satellite Brightness Start Highest point End
(mag) Time Altitude Azimuth Time Altitude Azimuth Time Altitude Azimuth
DELTA 2 R/B (1) 3.6 21:21:40 10° W 21:27:13 79° S 21:32:47 10° E
Cosmos 332 Rocket 3.9 21:23:11 10° NNW 21:28:03 88° WSW 21:32:54 10° SSE
ATLAS CENTAUR R/B 1.5 21:26:08 10° NNW 21:30:45 86° SW 21:34:56 10° SSE
CZ-4 SHROUD 4.4 21:30:51 10° SE 21:33:34 28° ENE 21:36:20 10° N
Envisat 3.2 21:28:44 10° SSE 21:33:41 57° ENE 21:38:40 10° N
Cosmos 1553 Rocket 4.1 21:27:17 10° N 21:33:42 68° E 21:40:00 10° SSE
Cosmos 1515 Rocket 4.0 21:30:20 10° N 21:34:37 46° ENE 21:38:52 10° SSE
YAOGAN 6 4.1 21:34:23 10° ESE 21:37:16 22° ENE 21:40:09 10° NNE
ARGOS 4.5 21:33:35 10° ESE 21:37:54 25° ENE 21:42:14 10° NNE
Nimbus 7 Rocket 4.4 21:37:45 10° NNE 21:43:36 67° ESE 21:49:24 10° S
Cosmos 2292 4.2 21:40:50 10° N 21:43:51 62° E 21:46:55 10° SSE
ERS-1 Rocket 3.4 21:41:15 10° S 21:46:13 64° WSW 21:51:14 10° NNW
Cosmos 405 4.1 21:43:48 10° NNE 21:47:02 29° ENE 21:49:43 13° SE
Cosmos 1441 Rocket 3.2 21:44:16 10° S 21:48:00 64° E 21:51:45 10° NNE
Cosmos 1777 Rocket 4.2 21:43:59 10° S 21:49:04 51° ESE 21:54:09 10° NNE
Cosmos 1939 Rocket 3.1 21:50:21 10° S 21:54:19 70° WSW 21:58:14 10° NNW
Cosmos 2322 Rocket 2.3 21:49:20 10° NNW 21:54:57 78° WSW 22:00:33 10° SSE
H-2A R/B 3.9 21:51:29 10° ESE 21:55:04 19° ENE 21:58:40 10° NNE
SPOT 5 2.7 21:57:17 10° SSE 22:01:43 83° ENE 22:06:26 10° NNW
SL-16 R/B 2.4 21:57:49 10° NNW 22:03:30 72° WSW 22:08:55 11° SSE
Cosmos 1437 3.8 22:02:32 17° SE 22:04:22 29° E 22:07:17 10° NNE
CZ-2C R/B 2.9 22:03:26 10° SW 22:04:29 14° W 22:05:34 10° WNW
Cosmos 371 Rocket 3.8 22:00:22 10° NNW 22:05:06 57° WSW 22:09:48 10° S
Cosmos 2151 3.4 22:01:49 13° SSE 22:05:16 41° E 22:09:14 10° NNE
Meteor 2-2 Rocket 4.4 21:59:24 10° N 22:05:25 81° E 22:11:18 11° SSE
Cosmos 1980 Rocket 4.1 22:01:03 10° NW 22:05:33 25° WSW 22:10:03 10° SSW
Cosmos 1908 3.3 22:01:48 10° N 22:05:41 64° E 22:08:46 15° SSE
Cosmos 1726 4.2 22:03:51 10° NE 22:05:59 14° ENE 22:07:30 12° E
Cosmos 2360 Rocket 2.7 22:01:03 10° NNW 22:06:32 48° ENE 22:10:47 16° SE
SPOT 1/Viking Rocket 3.9 22:02:26 14° SE 22:06:36 51° ENE 22:11:35 10° N
NOSS 3-1 (C) 4.5 22:03:18 13° SSE 22:06:58 23° ESE 22:11:40 10° ENE
Cosmos 1151 Rocket 3.1 22:04:47 10° N 22:09:04 63° E 22:12:25 16° SSE
Cosmos 1680 Rocket 3.9 22:11:11 10° N 22:16:17 50° ENE 22:19:50 19° SE
OE (NEXTSAT) 4.4 22:14:14 10° WNW 22:17:50 80° NNE 22:20:08 21° ESE
Cosmos 923 Rocket 4.0 22:13:57 10° NNW 22:19:10 70° ENE 22:22:50 20° SSE
H-2A R/B 3.5 22:15:18 10° SSW 22:19:27 36° W 22:23:38 10° NNW
Cosmos 1437 Rocket 3.2 22:21:27 10° NNW 22:25:11 57° W 22:28:15 15° S
Cosmos 1674 3.0 22:26:30 10° SSW 22:30:17 65° W 22:34:08 10° N
Cosmos 1833 4.2 22:25:23 10° SSW 22:31:06 88° ESE 22:36:49 10° NNE
Cosmos 2227 Rocket 4.2 22:31:10 11° E 22:31:13 11° E 22:32:30 10° E
MetOp-B 4.4 22:27:23 14° S 22:32:02 67° WSW 22:37:23 10° NNW
Cosmos 2333 Rocket 4.2 22:29:24 10° N 22:33:09 17° NE 22:36:55 10° E
CZ-4B R/B 3.6 22:29:21 10° NNE 22:34:40 88° WNW 22:39:53 10° SSW
CZ-4C R/B 3.6 22:34:28 29° ESE 22:35:43 41° ENE 22:39:01 10° N
Cosmos 1300 3.2 22:34:13 10° N 22:37:55 44° E 22:39:16 31° SE
SL-08 RB Rocket 3.7 22:36:33 26° SSE 22:39:02 71° ENE 22:43:31 10° N
Cosmos 2058 2.8 22:39:47 26° S 22:41:59 66° E 22:46:04 10° NNE
Cosmos 1328 3.8 22:40:36 19° S 22:43:23 82° W 22:47:22 10° N
Cosmos 1626 4.5 22:44:32 11° E 22:44:32 11° E 22:45:24 10° ENE
COSMOS 2428 3.2 22:39:51 10° NNW 22:45:21 48° ENE 22:48:24 25° ESE
Meteor 1-4 Rocket 3.8 22:44:30 10° NNE 22:47:48 28° ENE 22:48:33 26° E
USA 229 DEB 4.2 22:41:46 10° SW 22:48:38 66° NW 22:55:37 10° NNE
USA 229 4.1 22:41:51 10° SW 22:48:44 66° NW 22:55:43 10° NNE
DELTA 2 DEB (DPAF) 4.1 22:49:23 31° SSE 22:51:29 74° ENE 22:55:59 10° N
Cosmos 2242 Rocket 4.2 22:48:21 10° N 22:52:35 41° ENE 22:54:01 31° ESE
Cosmos 304 Rocket 3.9 22:47:49 10° NNW 22:52:38 72° WSW 22:55:08 28° S
SL-23 DEB 3.7 22:49:18 10° NW 22:53:58 76° NNE 22:55:10 39° ESE
Landsat 7 3.8 22:51:46 31° SSE 22:54:02 72° ENE 22:58:47 10° N
USA 32 4.3 22:51:06 10° N 22:56:14 51° E 22:58:25 31° SE
Cosmos 2297 Rocket 4.1 22:59:14 13° E 22:59:14 13° E 23:01:29 10° ENE
Spot 4 4.4 22:57:34 30° ESE 22:59:26 45° ENE 23:04:04 10° N
Cosmos 1455 3.9 22:58:11 10° NNE 23:00:58 19° ENE 23:01:18 19° E
IGS 5A 3.8 23:00:13 37° ESE 23:01:26 51° ENE 23:05:30 10° N
SeaSat 1 4.0 23:01:34 16° E 23:04:10 24° NE 23:08:07 10° N
USA 245 4.3 23:04:47 21° SW 23:05:30 23° W 23:07:38 10° NW
Cosmos 2237 4.2 23:01:22 10° NNW 23:07:08 77° ENE 23:09:42 34° SE
NOSS 3-1 (A) 3.6 23:05:11 26° S 23:08:15 50° ESE 23:14:26 10° NE
Terra 1.8 23:08:07 38° SSE 23:09:53 73° ENE 23:14:39 10° N
Cosmos 2315 Rocket 4.4 23:03:51 10° NNW 23:09:56 60° W 23:14:09 21° SSW
Cosmos 2219 Rocket 3.0 23:05:00 10° N 23:10:13 39° ENE 23:12:41 26° ESE
DELTA 2 R/B (1) 3.6 23:08:05 10° W 23:13:33 60° SSW 23:15:33 37° SE
SL-14 R/B 3.3 23:13:40 39° SSW 23:15:00 76° W 23:19:00 10° N
Cosmos 292 Rocket 4.3 23:10:37 10° N 23:15:14 46° ENE 23:16:37 36° ESE
Cosmos 1703 3.3 23:16:03 55° SE 23:16:30 59° E 23:20:21 10° NNE
Meteor 1-27 4.4 23:11:23 10° NNW 23:17:05 72° W 23:19:54 30° S
ARGOS 4.0 23:14:35 21° SSW 23:17:52 44° W 23:23:02 10° NNW
Cosmos 2298 Rocket 3.9 23:15:37 28° SSW 23:18:31 82° ESE 23:23:52 10° NNE
Cosmos 1862 Rocket 4.4 23:15:15 10° N 23:19:16 35° ENE 23:19:53 33° E
CARTOSAT-1 3.5 23:20:21 46° S 23:21:34 79° WSW 23:25:55 10° NNW
Cosmos 2219 3.5 23:17:12 10° SSW 23:22:53 67° WNW 23:28:39 10° NNE
Cosmos 1271 Rocket 2.5 23:22:16 10° N 23:26:05 81° E 23:26:28 70° SE
Cosmos 1633 Rocket 3.3 23:26:23 35° SSW 23:28:06 65° W 23:32:27 10° N
Cosmos 2333 4.2 23:23:26 10° NNW 23:29:11 85° ENE 23:31:14 42° SSE
Sich 1 3.5 23:28:03 32° SSW 23:29:56 58° W 23:34:19 10° N
ATLAS 2AS CENTAUR R/B 3.6 23:29:35 31° SE 23:31:05 34° ESE 23:38:00 10° NE
H-2A R/B 2.4 23:31:47 35° SSW 23:33:55 61° W 23:39:17 10° NNW
Spot 2 4.4 23:30:09 10° NNE 23:35:19 85° WNW 23:37:17 38° SSW
Cosmos 2237 Rocket 3.0 23:30:20 10° N 23:35:44 42° ENE 23:37:51 30° ESE
Cosmos 1937 Rocket 3.4 23:34:59 45° S 23:36:33 73° ESE 23:41:46 10° NNE
Cosmos 2082 4.2 23:36:11 39° SE 23:36:54 41° ESE 23:42:13 10° NE
Cosmos 1726 3.3 23:38:02 10° NNW 23:41:30 34° W 23:42:11 32° WSW
Iridium 2 4.0 23:42:31 53° WSW 23:43:00 59° W 23:46:49 10° N
Nadezhda 1 Rocket 3.9 23:39:23 10° N 23:45:30 89° E 23:47:39 43° S
ALOS 2 4.4 23:45:44 19° E 23:46:29 20° ENE 23:49:38 10° NNE
SAR-Lupe-2 4.5 23:48:16 39° WSW 23:48:21 39° W 23:51:45 10° NNW
Cosmos 2360 Rocket 3.9 23:45:47 10° NW 23:50:10 24° W 23:52:34 18° SW
Cosmos 990 Rocket 3.8 23:53:10 58° S 23:54:06 74° ESE 23:59:14 10° NNE
